SL-16 DEB, 22456

Orbit data source: Space-Track

SL-16 DEB, 22456 is space debris in LEO originally from a launch on Fri, 25 Dec 1992 UTC launched from the Tyuratam Missile And Space Complex (TTMTR). Debris objects in space refer to the collection of defunct objects orbiting the Earth. Examples of debris include non-operational satellites, rocket bodies, and fragments generated from explosions, collisions, or faulty payload assembly.

Loading next visibility...
Identifier
22456, 1992-093EV
Orbit
LEO
Country
Flag of CISCIS
Related business
Manufacturer
Unknown
Mission
Spacecraft
Bus & Motor
Unknown
Mass
Unknown
Launch date (UTC)
1992-12-25 (33 years ago)
Launch vehicle
Unknown
Launch site
Tyuratam Missile And Space Complex (TTMTR)
Object type
Payload
Rocket body
Debris
Shape & HBR
Unknown shape, 0.1 m
Radar Cross Section
Small (<0.1 m²)

Expand to show TLE details & history
Last TLE update: 1 day ago

TLE from 1 day ago
0 SL-16 DEB
1 22456U 92093EV  25351.64176416  .00014219  00000-0  26984-2 0  9991
2 22456  71.2303 177.0032 0060955 266.7906 161.7489 14.63094840688195
Epoch: 2025-12-17T15:24Z
TLE epoch observation values (Epoch: 2025-12-17T15:24:08.423Z)
Latitude
62.05158°
Longitude
-100.9641°
Altitude
734.213 km
Speed
7.472 km/s
True Right ascension
14h 26m 19s
True Declination
61° 54' 30"
Sunlit
Object was in daylight at epoch
Visualization orbit readout
Latitude
Unknown
Longitude
Unknown
Altitude
Unknown
Speed
Unknown
Apparent Right ascension
Unknown
Apparent Declination
Unknown
Sunlit
N/A
Visualization observer readout
Local Sidereal Time
16:18:42
Azimuth
Unknown
Elevation
Unknown
Doppler factor
Unknown
Orbital elements
Apogee altitude
724.083 km
Perigee altitude
638.024 km
Semi-major axis
7,059.19 km
Eccentricity
0.0061
Inclination
71.2303°
RAAN
177.0032°
Arg. of periapsis
266.7906°
True anomaly
161.96608°
Mean anomaly
161.7489°
Eccentric anomaly
161.85765°
Mean motion
3.65941 °/min
Orbital period
98.38 mins
BSTAR
0.0026984
Loading maneuver chart data...
Computing Atmospheric mass density...
Loading historical data...
Loading historical data...
Loading historical data...
Loading historical data...
Loading historical data...
Loading historical data...
Loading historical data...

Documentation

Showing up to 5 results
|